Regional Weather Roundup
Issued by NWS Upton, NY

Current Version | Previous Version | Graphics & Text | Print | Product List | Glossary Off
Versions: 1 2 3 4 5 6 7 8 9 10 11 12 13 14 15 16 17 18 19 20 21 22 23 24 25 26 27 28 29 30 31 32 33 34 35 36 37 38 39 40 41 42 43 44 45 46 47 48 49 50

000
ASUS41 KOKX 211209
RWROKX

REGIONAL WEATHER ROUNDUP
NATIONAL WEATHER SERVICE NEW YORK NY
800 AM EDT THU SEP 21 2017

NOTE: "FAIR" INDICATES FEW OR NO CLOUDS BELOW 12,000 FEET WITH NO
SIGNIFICANT WEATHER AND/OR OBSTRUCTIONS TO VISIBILITY.

NYZ071-072-176-178-NJZ106-104-211300-
NEW YORK CITY METRO AREA

CITY           SKY/WX    TMP DP  RH WIND       PRES   REMARKS
Central Park   CLOUDY    72  64  76 VRB3      30.02S
Bronx Bot Gard   N/A     72  63  73 NW7       30.01S
LaGuardia APRT CLOUDY    72  65  78 N13       29.98R
Kennedy INTL   CLOUDY    73  64  73 N14       29.99R
Breezy Point     N/A     72 N/A N/A N9          N/A
Newark/Liberty CLOUDY    73  63  70 N14       30.00R
Teterboro      CLOUDY    72  65  78 N6        30.00R
$$

NYZ177-179-078>081-211300-
LONG ISLAND NEW YORK

CITY           SKY/WX    TMP DP  RH WIND       PRES   REMARKS
Jones Beach      N/A     72 N/A N/A N16         N/A
Matinecock PT    N/A     72 N/A N/A N17         N/A
Farmingdale    CLOUDY    72  63  73 N12       29.97R
MacArthur/ISP  CLOUDY    72  64  76 N15       29.95R
Shirley        CLOUDY    74  65  73 N14       29.95R
Mt Sinai Harb    N/A     72 N/A N/A N13         N/A
Westhampton    CLOUDY    71  62  73 N15G24    29.94R
East Hampton   CLOUDY    70  63  78 N12G21    29.92R
Montauk          N/A     71  65  81 N12       29.91R
$$

NYZ052-065-067-211300-
HUDSON VALLEY

CITY           SKY/WX    TMP DP  RH WIND       PRES   REMARKS
White Plains   MOSUNNY   70  63  78 NW12      30.00R
Larchmont Harb   N/A     70 N/A N/A NW10        N/A
Croton On Huds   N/A     70 N/A N/A N6G13       N/A
Newburgh       PTSUNNY   68  64  88 NE12      30.05R
Montgomery     MOSUNNY   61  60  97 CALM      30.05R
Poughkeepsie   PTSUNNY   68  63  84 N12       30.03R
Albany         MOSUNNY   65  62  90 N6        30.08R FOG
$$

NJZ001-105-106-008-010-013-015-019>022-104-211300-
NEW JERSEY

CITY           SKY/WX    TMP DP  RH WIND       PRES   REMARKS
Newark/Liberty CLOUDY    73  63  70 N14       30.00R
Teterboro      CLOUDY    72  65  78 N6        30.00R
Caldwell       PTSUNNY   69  65  86 CALM      30.03R
Somerville     NOT AVBL
Linden         NOT AVBL
Perth Amboy      N/A     72 N/A N/A NW8         N/A
Sussex         MOSUNNY   62  62 100 CALM      30.05R
Andover          N/A     61  61 100 CALM      30.06R
Trenton        SUNNY     67  63  87 NW6       30.03R
Millville      MOSUNNY   70  67  90 W6        30.02S
Atlantic City  MOSUNNY   70  65  84 NW8       30.01R
Wrightstown    CLOUDY    68  64  86 NW10      29.99R
Toms River     CLOUDY    69  64  84 NW8       30.01R
Belmar         CLOUDY    69  64  84 NW9       30.01R
$$

PAZ047>061-062-071-211300-
EASTERN PENNSYLVANIA

CITY           SKY/WX    TMP DP  RH WIND       PRES   REMARKS
Philadelphia   PTSUNNY   73  62  68 N8        30.03S
Allentown      MOSUNNY   65  61  87 SW5       30.06R
Scranton       MOSUNNY   63  62  97 SW5       30.11R
$$

CTZ002-004>006-009-010-012-RIZ004-006-007-MAZ004-011-015-211300-
SOUTHERN NEW ENGLAND
 IN CT

CITY           SKY/WX    TMP DP  RH WIND       PRES   REMARKS
Bradley INTL   CLOUDY    71  62  73 N13       30.00R
Hartford       CLOUDY    72  62  71 N15       29.98R
Danbury        CLOUDY    72  63  73 N8        30.02R
Wtrbury/Oxford CLOUDY    68  62  81 N16G22    30.01R
Norwalk Harbor   N/A     70 N/A N/A N12         N/A
Bridgeport     CLOUDY    72  62  71 N13       29.97R
Meriden        CLOUDY    71  61  70 N10G17    29.98R
New Haven      CLOUDY    72  62  71 N12G18    29.97R
Chester        CLOUDY    70  63  78 N10       29.96R
Groton         CLOUDY    71  62  73 N17G25    29.90R
Wilimantic     CLOUDY    71  63  75 N13       29.97R

 IN RI

CITY           SKY/WX    TMP DP  RH WIND       PRES   REMARKS
Providence     CLOUDY    70  64  81 N23G35    29.93R
Block Island   CLOUDY    69  64  84 N21G36    29.89R
Westerly       CLOUDY    72  63  73 N18G25    29.91R
 IN MA

CITY           SKY/WX    TMP DP  RH WIND       PRES   REMARKS
Boston         CLOUDY    68  62  81 NE24G35   29.97R
Worcester      CLOUDY    65  58  78 N16G25    30.01R
Westfield      CLOUDY    70  62  76 NE8       30.02R
Provincetown   CLOUDY    63  60  90 N23G36    29.88R FOG
Nantucket      LGT RAIN  65  65 100 N35G45    29.73R FOG
$$

ANZ330-335-338-340-345-350-353-355-211300-
COASTAL MARINE OBSERVATIONS


STATION/POSITION TIME  SKY/WX   TEMP    WIND        PRES    VSBY  WAVE
                                AIR SEA DIR/SP/G                  HT/PER
                 (UTC)          (F)     (DEG/KT/KT) (MB)    (MI)  (FT/S)
NY HARB ENTRANCE 1150            72 70  340/ 14/ 16 1014.1          4/ 9
20 S FIRE ISLAND 1150            70 67  340/ 14/ 16 1013.6          5/ 8
GREAT SOUTH BAY  1130            72 71  360/ 10/ 14   N/A
23 SSW MONTAUK P 1050            69 65              1011.6          5/ 9
15 E BARNEGAT LI 1130               69                N/A           5/ 8
HUDSON CANYON    1150            71 70  330/ 19/ 21 1011.6          6/10
KINGS POINT      1148            71 71   30/ 13/ 16 1016.1
EXECUTION ROCKS  1145            72     340/ 12/ 17   N/A
WESTERN LI SOUND NOT AVBL
CENTRAL LI SOUND NOT AVBL
EASTERN LI SOUND NOT AVBL
ROBBINS REEF     1148            72     340/ 10/ 15 1016.4
$$


>>>>>>>>>>>>>>>>>>>>>>>>>>>> KEY <<<<<<<<<<<<<<<<<<<<<<<<<<<
>                                                          <
>     SKY/WX - Sky Condition/Present Weather               <
>     TMP    - Temperature in Fahrenheit                   <
>     DP     - Dew Point in Fahrenheit                     <
>     RH     - Relative Humidity in Percent                <
>     WIND   - Direction (from) and Speed in MPH           <
>     PRES   - Mean Sea Level Pressure (inches of Hg)      <
>     WCI    - Wind Chill Index                            <
>     VSB    - VISIBILITY IN MILES                         <
>     HX     - HEAT INDEX                                  <
>     TC     - TEMPERATURE IN CELSIUS                      <
>     VRB    - VARIABLE WIND DIRECTION                     <
>                                                          <
>>>>>>>>>>>>>>>>>>>>>>>>>>>> KEY <<<<<<<<<<<<<<<<<<<<<<<<<<<



USA.gov is the U.S. government's official web portal to all federal, state and local government web resources and services.